Location: Ferchesar
(52.6477°N, 12.4298°E)
Time: 15:49:22
(UTC+01:00)

Vanguard 3 - Pass Details

Date: 16 December 2021
Orbit: 508 x 3260 km, 33.3° (Epoch: 22 January)

Event Time Altitude Azimuth Distance (km) Brightness Sun altitude
Rises 03:30:29 0° 255° (WSW) 6,311 - -41.6°
Reaches altitude 10° 03:34:41 10° 248° (WSW) 5,590 - -41.0°
Exits shadow 03:48:01 38° 202° (SSW) 4,248 10.4 -39.0°
Maximum altitude 03:50:28 39° 189° (S) 4,231 10.5 -38.7°
Drops below altitude 10° 04:07:11 10° 130° (SE) 5,890 11.9 -36.2°
Sets 04:11:47 0° 123° (ESE) 6,667 12.4 -35.5°
